This is the latest recevied weather packets stored in our database for station/object KD8NVS-13. If no packets are shown the sender has not sent any weather packets the latest 10 day(s).
| Time | Temp. | Humidity | Pressure | Rain* | Wind** | Luminosity | Snow |
|---|---|---|---|---|---|---|---|
| 1777839587 | 16.11° C | 36% | 1004.9 hPa | 0 mm | - | 117 W/m² | - |
| 1777839284 | 16.11° C | 36% | 1005.2 hPa | 0 mm | - | 114 W/m² | - |
| 1777838982 | 16.11° C | 38% | 1005.2 hPa | 0 mm | - | 127 W/m² | - |
| 1777838678 | 16.11° C | 38% | 1005.2 hPa | 0 mm | - | 156 W/m² | - |
| 1777838375 | 16.11° C | 40% | 1005.5 hPa | 0 mm | - | 110 W/m² | - |
| 1777838072 | 16.11° C | 38% | 1005.5 hPa | 0 mm | - | 148 W/m² | - |
| 1777837768 | 16.11° C | 37% | 1005.5 hPa | 0 mm | - | 113 W/m² | - |
| 1777837465 | 16.11° C | 36% | 1005.5 hPa | 0 mm | - | 100 W/m² | - |
| 1777837160 | 16.11° C | 36% | 1005.9 hPa | 0 mm | - | 96 W/m² | - |
| 1777836856 | 15.56° C | 37% | 1005.9 hPa | 0 mm | - | 121 W/m² | - |
| 1777836552 | 16.11° C | 37% | 1005.9 hPa | 0 mm | - | 121 W/m² | - |
| 1777836248 | 16.11° C | 38% | 1005.9 hPa | 0 mm | - | 164 W/m² | - |
| 1777835944 | 15.56° C | 39% | 1006.3 hPa | 0 mm | - | 167 W/m² | - |
| 1777835641 | 15° C | 39% | 1006.3 hPa | 0 mm | - | 185 W/m² | - |
| 1777835338 | 16.11° C | 38% | 1006.3 hPa | 0 mm | - | 111 W/m² | - |
| 1777835035 | 16.11° C | 39% | 1006.7 hPa | 0 mm | - | 131 W/m² | - |
| 1777834732 | 16.11° C | 40% | 1006.7 hPa | 0 mm | - | 126 W/m² | - |
| 1777834428 | 15.56° C | 37% | 1006.7 hPa | 0 mm | - | 175 W/m² | - |
| 1777834128 | 16.11° C | 39% | 1006.7 hPa | 0 mm | - | 158 W/m² | - |
| 1777833824 | 15.56° C | 41% | 1007 hPa | 0 mm | - | 158 W/m² | - |
| 1777833520 | 15.56° C | 41% | 1007 hPa | 0 mm | - | 132 W/m² | - |
| 1777833218 | 15° C | 41% | 1007 hPa | 0 mm | - | 161 W/m² | - |
| 1777832915 | 15.56° C | 40% | 1007 hPa | 0 mm | - | 205 W/m² | - |
| 1777832614 | 15° C | 40% | 1007 hPa | 0 mm | - | 187 W/m² | - |
| 1777832310 | 15.56° C | 41% | 1007 hPa | 0 mm | - | 170 W/m² | - |
* Rain latest hour (hover to see other rain measurements)
** Current wind speed in m/s (hover to see current wind gust speed)